WXM80 ListenWXM80 Stop

You find our weather info also at:

UK Metoffice

WeatherCloud

Weather Underground

Northeastern Weather Network

AWEKAS

Citizen Weather Observer Program (CWOP)

HAMweather, WeatherForYou, PWS Weather


Weather Underground History page Text

Daily Summary for January 20, 2018 Units:  English    Metric   Both
« Previous Day
Next Day »
Daily Weekly Monthly Yearly Custom
  High: Low: Average:
Temperature: TemperatureF °F 31.5 °F 43 °F
Dew Point: DewpointF °F 23.8 °F 28.5 °F
Humidity: Humidity % 43 % 57 %
Wind Speed: WindSpeedMPH mph 0.0 mph 5.3 mph
Wind Gust: WindSpeedGustMPH mph - -
Wind:- - SW
Pressure: PressureIn in 29.58 in -
Precipitation: 0.00 in    
Historical Graphs
 
 
Tabular Data for January 20, 2018
Time Temperature Dew Point Pressure Wind Wind Speed Wind Gust Humidity Rainfall Rate (Hourly)
TemperatureF °F DewpointF °F PressureIn in Calm     Humidity % HourlyPrecipIn in
00:03 31.5 °F 23.8 °F 29.69 in SSW 1.5 mph 2.3 mph 73 % 0.00 in
00:08 31.5 °F 23.8 °F 29.68 in SW 3.2 mph 6.0 mph 73 % 0.00 in
00:13 31.6 °F 23.9 °F 29.68 in Calm   3.5 mph 73 % 0.00 in
00:18 31.7 °F 24.0 °F 29.68 in SSW 1.2 mph 3.5 mph 73 % 0.00 in
00:23 31.9 °F 24.2 °F 29.68 in SW 2.1 mph 4.6 mph 73 % 0.00 in
00:28 32.0 °F 24.3 °F 29.68 in SW 0.3 mph 2.0 mph 73 % 0.00 in
00:33 32.2 °F 24.5 °F 29.68 in SW 1.8 mph 3.5 mph 73 % 0.00 in
00:38 32.3 °F 24.3 °F 29.68 in SSW 2.7 mph 5.0 mph 72 % 0.00 in
00:43 32.4 °F 24.4 °F 29.68 in SW 0.3 mph 3.5 mph 72 % 0.00 in
00:48 32.5 °F 24.5 °F 29.67 in SSW 1.8 mph 3.5 mph 72 % 0.00 in
00:53 32.6 °F 24.6 °F 29.67 in SSW 2.5 mph 3.5 mph 72 % 0.00 in
00:58 32.8 °F 24.4 °F 29.67 in South 2.3 mph 4.6 mph 71 % 0.00 in
01:03 32.9 °F 24.5 °F 29.67 in SW 3.0 mph 8.1 mph 71 % 0.00 in
01:08 33.2 °F 24.8 °F 29.66 in SW 2.3 mph 4.0 mph 71 % 0.00 in
01:13 33.3 °F 24.9 °F 29.67 in SW 2.6 mph 4.6 mph 71 % 0.00 in
01:18 33.6 °F 24.9 °F 29.67 in SSW 5.4 mph 8.1 mph 70 % 0.00 in
01:23 33.8 °F 24.7 °F 29.67 in SW 2.3 mph 4.6 mph 69 % 0.00 in
01:29 34.0 °F 24.9 °F 29.67 in SSW 2.8 mph 5.8 mph 69 % 0.00 in
01:34 34.1 °F 24.6 °F 29.67 in SSW 4.4 mph 5.8 mph 68 % 0.00 in
01:39 34.2 °F 24.7 °F 29.67 in SSW 1.8 mph 4.0 mph 68 % 0.00 in
01:44 34.3 °F 24.8 °F 29.67 in SSW 4.4 mph 6.9 mph 68 % 0.00 in
01:49 34.4 °F 24.9 °F 29.67 in SSW 1.7 mph 4.0 mph 68 % 0.00 in
01:54 34.4 °F 24.9 °F 29.66 in SW 1.1 mph 6.9 mph 68 % 0.00 in
01:59 34.5 °F 24.7 °F 29.65 in SW 2.7 mph 6.9 mph 67 % 0.00 in
02:04 34.5 °F 24.7 °F 29.65 in SW 4.2 mph 6.9 mph 67 % 0.00 in
02:09 34.6 °F 24.8 °F 29.65 in SSW 2.4 mph 4.6 mph 67 % 0.00 in
02:14 34.7 °F 24.9 °F 29.65 in SSW 2.4 mph 4.6 mph 67 % 0.00 in
02:19 34.9 °F 24.7 °F 29.65 in SSW 3.7 mph 6.0 mph 66 % 0.00 in
02:24 35.1 °F 24.9 °F 29.65 in SSW 3.2 mph 5.8 mph 66 % 0.00 in
02:29 35.3 °F 24.7 °F 29.65 in SSW 4.4 mph 7.0 mph 65 % 0.00 in
02:34 35.4 °F 24.8 °F 29.66 in SW 4.1 mph 6.0 mph 65 % 0.00 in
02:39 35.5 °F 24.9 °F 29.66 in South 4.2 mph 5.8 mph 65 % 0.00 in
02:44 35.7 °F 25.1 °F 29.65 in WSW 4.4 mph 8.0 mph 65 % 0.00 in
02:49 35.8 °F 24.8 °F 29.65 in SW 6.6 mph 11.5 mph 64 % 0.00 in
02:54 35.8 °F 24.8 °F 29.65 in SSW 4.3 mph 10.4 mph 64 % 0.00 in
02:59 35.9 °F 24.9 °F 29.65 in SW 5.3 mph 7.0 mph 64 % 0.00 in
03:04 35.9 °F 24.9 °F 29.65 in SW 5.8 mph 9.0 mph 64 % 0.00 in
03:10 36.0 °F 25.0 °F 29.64 in SW 5.9 mph 11.5 mph 64 % 0.00 in
03:15 36.1 °F 24.7 °F 29.64 in SW 4.0 mph 9.2 mph 63 % 0.00 in
03:20 36.3 °F 24.9 °F 29.64 in SSW 6.4 mph 11.5 mph 63 % 0.00 in
03:25 36.4 °F 25.0 °F 29.64 in SW 6.7 mph 12.7 mph 63 % 0.00 in
03:30 36.5 °F 24.7 °F 29.63 in SW 5.9 mph 12.0 mph 62 % 0.00 in
03:35 36.6 °F 24.8 °F 29.62 in SW 5.5 mph 10.4 mph 62 % 0.00 in
03:40 36.7 °F 24.9 °F 29.64 in SSW 6.2 mph 12.0 mph 62 % 0.00 in
03:45 36.8 °F 24.6 °F 29.64 in SW 5.0 mph 12.7 mph 61 % 0.00 in
03:50 36.9 °F 24.7 °F 29.63 in WSW 5.0 mph 11.5 mph 61 % 0.00 in
03:55 37.0 °F 24.8 °F 29.63 in SSW 5.8 mph 9.2 mph 61 % 0.00 in
04:00 37.1 °F 24.9 °F 29.64 in SW 7.1 mph 10.4 mph 61 % 0.00 in
04:05 37.3 °F 25.1 °F 29.63 in SW 9.1 mph 12.7 mph 61 % 0.00 in
04:10 37.4 °F 24.8 °F 29.63 in South 6.4 mph 10.4 mph 60 % 0.00 in
04:15 37.5 °F 24.9 °F 29.62 in SSW 7.8 mph 16.1 mph 60 % 0.00 in
04:20 37.6 °F 25.0 °F 29.62 in WSW 6.5 mph 9.2 mph 60 % 0.00 in
04:25 37.7 °F 25.1 °F 29.63 in SW 6.0 mph 14.0 mph 60 % 0.00 in
04:30 37.8 °F 25.1 °F 29.63 in SW 6.0 mph 12.0 mph 60 % 0.00 in
04:35 37.9 °F 24.8 °F 29.63 in SW 6.0 mph 13.0 mph 59 % 0.00 in
04:40 38.0 °F 24.9 °F 29.62 in SW 6.0 mph 14.0 mph 59 % 0.00 in
04:45 38.1 °F 25.0 °F 29.62 in SW 6.0 mph 12.0 mph 59 % 0.00 in
04:50 38.2 °F 25.1 °F 29.62 in SSW 3.3 mph 11.5 mph 59 % 0.00 in
04:55 38.2 °F 25.1 °F 29.61 in SW 7.0 mph 14.0 mph 59 % 0.00 in
05:01 38.3 °F 25.2 °F 29.61 in South 5.4 mph 12.7 mph 59 % 0.00 in
05:06 38.4 °F 25.3 °F 29.61 in SW 8.4 mph 13.8 mph 59 % 0.00 in
05:11 38.5 °F 25.4 °F 29.61 in SW 9.4 mph 13.8 mph 59 % 0.00 in
05:16 38.6 °F 25.5 °F 29.61 in SW 5.5 mph 13.8 mph 59 % 0.00 in
05:21 38.6 °F 25.1 °F 29.61 in WSW 6.7 mph 16.1 mph 58 % 0.00 in
05:26 38.7 °F 25.2 °F 29.61 in SSW 6.2 mph 9.2 mph 58 % 0.00 in
05:31 38.8 °F 25.3 °F 29.60 in SW 7.7 mph 13.8 mph 58 % 0.00 in
05:36 38.8 °F 25.3 °F 29.61 in SSW 7.1 mph 10.4 mph 58 % 0.00 in
05:41 38.9 °F 25.4 °F 29.61 in SW 7.9 mph 13.0 mph 58 % 0.00 in
05:46 38.9 °F 25.4 °F 29.61 in SSW 7.2 mph 11.5 mph 58 % 0.00 in
05:51 39.1 °F 25.6 °F 29.61 in South 9.8 mph 13.8 mph 58 % 0.00 in
05:56 39.2 °F 25.6 °F 29.60 in SSW 7.5 mph 15.0 mph 58 % 0.00 in
06:01 39.3 °F 25.7 °F 29.61 in SSW 9.5 mph 13.8 mph 58 % 0.00 in
06:06 39.3 °F 25.7 °F 29.60 in SSW 7.7 mph 11.5 mph 58 % 0.00 in
06:11 39.3 °F 25.7 °F 29.60 in West 7.7 mph 15.0 mph 58 % 0.00 in
06:16 39.3 °F 25.7 °F 29.60 in SSW 9.0 mph 15.0 mph 58 % 0.00 in
06:21 39.3 °F 25.7 °F 29.60 in SW 9.1 mph 11.5 mph 58 % 0.00 in
06:26 39.3 °F 25.7 °F 29.59 in SW 8.9 mph 12.7 mph 58 % 0.00 in
06:31 39.2 °F 25.6 °F 29.59 in SW 8.5 mph 12.7 mph 58 % 0.00 in
06:37 39.2 °F 25.6 °F 29.60 in SSW 9.3 mph 15.0 mph 58 % 0.00 in
06:42 39.1 °F 25.6 °F 29.59 in WSW 9.8 mph 13.8 mph 58 % 0.00 in
06:47 39.1 °F 25.6 °F 29.59 in SW 8.1 mph 12.0 mph 58 % 0.00 in
06:52 39.0 °F 25.9 °F 29.59 in WSW 8.4 mph 11.5 mph 59 % 0.00 in
06:57 39.0 °F 25.9 °F 29.59 in SSW 5.8 mph 11.5 mph 59 % 0.00 in
07:02 38.9 °F 25.8 °F 29.60 in SW 7.3 mph 18.4 mph 59 % 0.00 in
07:07 38.8 °F 25.7 °F 29.60 in SW 6.3 mph 13.8 mph 59 % 0.00 in
07:12 38.7 °F 26.0 °F 29.60 in SW 6.6 mph 12.0 mph 60 % 0.00 in
07:17 38.7 °F 26.0 °F 29.60 in SSW 8.9 mph 16.1 mph 60 % 0.00 in
07:22 38.6 °F 25.9 °F 29.60 in WSW 7.6 mph 17.3 mph 60 % 0.00 in
07:27 38.6 °F 25.9 °F 29.60 in SW 10.2 mph 17.3 mph 60 % 0.00 in
07:32 38.7 °F 26.0 °F 29.60 in SSW 9.8 mph 13.8 mph 60 % 0.00 in
07:37 38.7 °F 26.0 °F 29.61 in SW 6.5 mph 12.7 mph 60 % 0.00 in
07:42 38.8 °F 26.1 °F 29.61 in WSW 7.9 mph 10.4 mph 60 % 0.00 in
07:47 38.9 °F 26.2 °F 29.61 in West 8.2 mph 11.5 mph 60 % 0.00 in
07:52 39.0 °F 26.3 °F 29.61 in South 10.1 mph 18.4 mph 60 % 0.00 in
07:57 39.1 °F 26.0 °F 29.61 in SW 6.7 mph 9.2 mph 59 % 0.00 in
08:02 39.2 °F 26.5 °F 29.61 in WSW 7.1 mph 11.5 mph 60 % 0.00 in
08:07 39.4 °F 26.2 °F 29.61 in SSW 8.1 mph 8.1 mph 59 % 0.00 in
08:13 39.5 °F 26.3 °F 29.61 in WSW 7.3 mph 13.8 mph 59 % 0.00 in
08:18 39.7 °F 26.5 °F 29.61 in SSW 6.3 mph 9.2 mph 59 % 0.00 in
08:23 39.9 °F 26.7 °F 29.61 in West 6.2 mph 16.0 mph 59 % 0.00 in
08:28 40.2 °F 26.6 °F 29.61 in SSW 8.2 mph 15.0 mph 58 % 0.00 in
08:33 40.5 °F 26.9 °F 29.61 in WSW 11.2 mph 17.0 mph 58 % 0.00 in
08:38 40.7 °F 27.1 °F 29.61 in SW 6.1 mph 15.0 mph 58 % 0.00 in
08:43 41.0 °F 27.3 °F 29.62 in SW 10.6 mph 19.6 mph 58 % 0.00 in
08:48 41.3 °F 27.2 °F 29.61 in SW 7.2 mph 11.5 mph 57 % 0.00 in
08:53 41.6 °F 27.5 °F 29.62 in SSW 9.7 mph 16.1 mph 57 % 0.00 in
08:58 41.9 °F 27.8 °F 29.62 in WSW 8.1 mph 13.8 mph 57 % 0.00 in
09:03 42.3 °F 27.7 °F 29.62 in SSW 9.8 mph 16.1 mph 56 % 0.00 in
09:08 42.7 °F 28.1 °F 29.62 in SW 8.6 mph 17.3 mph 56 % 0.00 in
09:13 43.2 °F 28.5 °F 29.63 in WSW 9.2 mph 13.8 mph 56 % 0.00 in
09:18 43.7 °F 28.6 °F 29.63 in SSW 6.8 mph 11.5 mph 55 % 0.00 in
09:23 44.4 °F 29.2 °F 29.63 in SW 8.6 mph 12.7 mph 55 % 0.00 in
09:28 45.1 °F 29.4 °F 29.63 in WSW 7.9 mph 15.0 mph 54 % 0.00 in
09:33 45.8 °F 29.6 °F 29.64 in SW 7.9 mph 18.4 mph 53 % 0.00 in
09:38 46.4 °F 29.7 °F 29.64 in SSW 9.5 mph 15.0 mph 52 % 0.00 in
09:44 46.8 °F 29.6 °F 29.64 in WSW 2.9 mph 9.0 mph 51 % 0.00 in
09:49 47.2 °F 30.0 °F 29.64 in SW 7.2 mph 13.8 mph 51 % 0.00 in
09:54 47.5 °F 29.8 °F 29.64 in West 6.6 mph 9.2 mph 50 % 0.00 in
09:55 47.6 °F 29.9 °F 29.64 in WSW 6.2 mph 11.5 mph 50 % 0.00 in
10:01 47.7 °F 29.5 °F 29.64 in SSW 9.7 mph 20.7 mph 49 % 0.00 in
10:06 47.9 °F 29.6 °F 29.64 in SW 7.0 mph 21.0 mph 49 % 0.00 in
10:11 48.2 °F 29.9 °F 29.64 in SSW 9.2 mph 17.3 mph 49 % 0.00 in
10:16 48.4 °F 30.1 °F 29.64 in WSW 7.0 mph 17.0 mph 49 % 0.00 in
10:21 48.8 °F 30.4 °F 29.64 in SW 10.0 mph 21.0 mph 49 % 0.00 in
10:26 49.0 °F 30.1 °F 29.64 in SW 7.7 mph 11.5 mph 48 % 0.00 in
10:31 49.3 °F 29.9 °F 29.64 in SW 8.0 mph 13.0 mph 47 % 0.00 in
10:36 49.5 °F 30.1 °F 29.63 in WSW 7.0 mph 13.0 mph 47 % 0.00 in
10:41 49.7 °F 30.3 °F 29.63 in SW 8.0 mph 20.0 mph 47 % 0.00 in
10:46 49.9 °F 30.5 °F 29.63 in SW 8.0 mph 17.0 mph 47 % 0.00 in
10:51 49.9 °F 29.9 °F 29.63 in WSW 9.0 mph 18.0 mph 46 % 0.00 in
10:56 50.0 °F 30.5 °F 29.63 in SW 10.0 mph 22.0 mph 47 % 0.00 in
11:01 49.9 °F 29.9 °F 29.62 in WSW 9.3 mph 16.1 mph 46 % 0.00 in
11:06 49.9 °F 30.5 °F 29.63 in WSW 7.0 mph 16.0 mph 47 % 0.00 in
11:11 49.9 °F 30.5 °F 29.62 in WSW 6.0 mph 16.0 mph 47 % 0.00 in
11:16 49.8 °F 29.8 °F 29.62 in WSW 9.0 mph 22.0 mph 46 % 0.00 in
11:21 49.6 °F 30.2 °F 29.62 in WSW 12.0 mph 20.0 mph 47 % 0.00 in
11:26 49.4 °F 30.0 °F 29.62 in WSW 6.0 mph 16.0 mph 47 % 0.00 in
11:31 49.4 °F 30.0 °F 29.61 in WSW 8.0 mph 15.0 mph 47 % 0.00 in
11:36 49.3 °F 29.9 °F 29.61 in WSW 10.0 mph 18.0 mph 47 % 0.00 in
11:41 49.3 °F 29.9 °F 29.60 in WSW 7.0 mph 17.0 mph 47 % 0.00 in
11:46 49.3 °F 29.9 °F 29.60 in SW 7.3 mph 19.6 mph 47 % 0.00 in
11:51 49.4 °F 30.5 °F 29.60 in WSW 6.0 mph 14.0 mph 48 % 0.00 in
11:56 49.5 °F 30.1 °F 29.59 in WSW 6.6 mph 16.1 mph 47 % 0.00 in
12:01 49.7 °F 30.8 °F 29.59 in WSW 4.0 mph 13.8 mph 48 % 0.00 in
12:06 49.8 °F 30.4 °F 29.59 in WSW 8.0 mph 20.0 mph 47 % 0.00 in
12:11 50.0 °F 30.5 °F 29.59 in WSW 9.0 mph 18.0 mph 47 % 0.00 in
12:16 50.1 °F 30.6 °F 29.59 in WSW 6.0 mph 17.0 mph 47 % 0.00 in
12:21 50.3 °F 30.8 °F 29.59 in WSW 6.0 mph 18.0 mph 47 % 0.00 in
12:26 50.5 °F 31.0 °F 29.59 in WSW 8.0 mph 17.0 mph 47 % 0.00 in
12:31 50.8 °F 31.3 °F 29.59 in WNW 7.8 mph 9.0 mph 47 % 0.00 in
12:36 51.1 °F 31.6 °F 29.58 in WSW 9.0 mph 18.0 mph 47 % 0.00 in
12:41 51.4 °F 31.3 °F 29.58 in WSW 5.9 mph 10.4 mph 46 % 0.00 in
12:46 51.7 °F 31.6 °F 29.58 in WSW 5.0 mph 13.0 mph 46 % 0.00 in
12:51 51.9 °F 31.2 °F 29.58 in West 8.0 mph 20.0 mph 45 % 0.00 in
12:56 52.2 °F 32.0 °F 29.58 in West 6.5 mph 17.3 mph 46 % 0.00 in
13:01 52.3 °F 31.6 °F 29.58 in West 7.1 mph 11.5 mph 45 % 0.00 in
13:06 52.3 °F 31.0 °F 29.58 in WSW 4.2 mph 13.8 mph 44 % 0.00 in
13:11 52.3 °F 31.6 °F 29.58 in SW 6.7 mph 12.7 mph 45 % 0.00 in
13:16 52.4 °F 31.7 °F 29.58 in West 3.8 mph 12.7 mph 45 % 0.00 in
13:21 52.4 °F 31.1 °F 29.58 in WNW 5.6 mph 11.5 mph 44 % 0.00 in
13:26 52.5 °F 31.2 °F 29.58 in West 6.0 mph 11.5 mph 44 % 0.00 in
13:31 52.6 °F 31.3 °F 29.58 in WNW 3.9 mph 10.0 mph 44 % 0.00 in
13:36 52.7 °F 31.4 °F 29.58 in West 5.6 mph 9.2 mph 44 % 0.00 in
13:41 52.8 °F 31.5 °F 29.59 in SW 6.7 mph 13.8 mph 44 % 0.00 in
13:46 52.8 °F 30.9 °F 29.59 in WSW 4.7 mph 14.0 mph 43 % 0.00 in
13:51 52.9 °F 31.6 °F 29.58 in WSW 8.4 mph 14.0 mph 44 % 0.00 in
13:56 53.0 °F 31.1 °F 29.59 in SW 2.7 mph 8.1 mph 43 % 0.00 in
14:01 53.0 °F 31.1 °F 29.59 in WNW 7.8 mph 10.4 mph 43 % 0.00 in
14:06 52.8 °F 30.9 °F 29.59 in SW 4.7 mph 9.2 mph 43 % 0.00 in
14:11 52.7 °F 31.4 °F 29.60 in WSW 4.8 mph 13.0 mph 44 % 0.00 in
14:16 52.7 °F 31.4 °F 29.60 in WSW 6.0 mph 11.5 mph 44 % 0.00 in
14:21 52.6 °F 31.3 °F 29.61 in West 4.7 mph 14.0 mph 44 % 0.00 in
14:26 52.5 °F 31.2 °F 29.61 in WSW 4.3 mph 7.0 mph 44 % 0.00 in
14:31 52.3 °F 31.0 °F 29.61 in WSW 8.3 mph 11.5 mph 44 % 0.00 in
14:36 52.1 °F 30.8 °F 29.60 in WSW 5.0 mph 11.5 mph 44 % 0.00 in
14:41 52.0 °F 31.3 °F 29.61 in WSW 6.5 mph 8.1 mph 45 % 0.00 in
14:46 51.8 °F 31.1 °F 29.60 in WNW 8.8 mph 11.5 mph 45 % 0.00 in
14:51 51.6 °F 30.9 °F 29.60 in West 4.4 mph 12.7 mph 45 % 0.00 in
14:57 51.3 °F 31.2 °F 29.61 in WNW 3.7 mph 9.2 mph 46 % 0.00 in
15:02 51.1 °F 31.0 °F 29.61 in WSW 4.0 mph 9.2 mph 46 % 0.00 in
15:07 50.8 °F 30.7 °F 29.61 in WSW 5.1 mph 9.2 mph 46 % 0.00 in
15:12 50.6 °F 31.1 °F 29.62 in WNW 3.2 mph 5.8 mph 47 % 0.00 in
15:17 50.3 °F 30.8 °F 29.62 in WSW 4.7 mph 11.5 mph 47 % 0.00 in
15:22 50.0 °F 30.5 °F 29.62 in WNW 5.3 mph 12.7 mph 47 % 0.00 in
15:27 49.8 °F 30.9 °F 29.62 in SW 5.4 mph 11.5 mph 48 % 0.00 in
15:32 49.4 °F 31.0 °F 29.62 in SW 7.6 mph 11.5 mph 49 % 0.00 in
15:37 49.2 °F 30.8 °F 29.62 in WSW 1.4 mph 5.0 mph 49 % 0.00 in
15:42 49.0 °F 30.7 °F 29.63 in SW 1.8 mph 7.0 mph 49 % 0.00 in
15:47 48.8 °F 31.0 °F 29.63 in West 4.1 mph 9.2 mph 50 % 0.00 in
15:52 48.6 °F 30.8 °F 29.64 in WSW 7.3 mph 15.0 mph 50 % 0.00 in
15:57 48.5 °F 30.7 °F 29.64 in WSW 4.7 mph 11.5 mph 50 % 0.00 in
16:02 48.3 °F 31.0 °F 29.64 in WSW 5.4 mph 13.8 mph 51 % 0.00 in
16:07 48.1 °F 30.8 °F 29.64 in SSW 5.5 mph 8.1 mph 51 % 0.00 in
16:12 48.0 °F 31.2 °F 29.64 in West 5.5 mph 9.2 mph 52 % 0.00 in
16:17 47.8 °F 31.0 °F 29.64 in NW 5.2 mph 10.4 mph 52 % 0.00 in
16:22 47.7 °F 30.9 °F 29.64 in WSW 2.8 mph 11.0 mph 52 % 0.00 in
16:27 47.6 °F 30.8 °F 29.64 in WSW 6.7 mph 10.4 mph 52 % 0.00 in
16:32 47.5 °F 30.7 °F 29.64 in WSW 3.4 mph 6.9 mph 52 % 0.00 in
16:37 47.4 °F 31.1 °F 29.65 in West 7.8 mph 12.7 mph 53 % 0.00 in
16:42 47.4 °F 31.1 °F 29.65 in WSW 4.0 mph 6.9 mph 53 % 0.00 in
16:47 47.3 °F 31.0 °F 29.65 in WNW 4.1 mph 10.4 mph 53 % 0.00 in
16:52 47.3 °F 31.0 °F 29.66 in WSW 2.9 mph 5.0 mph 53 % 0.00 in
16:58 47.2 °F 30.9 °F 29.66 in WSW 6.9 mph 6.9 mph 53 % 0.00 in
17:03 47.1 °F 30.8 °F 29.67 in SW 3.8 mph 10.4 mph 53 % 0.00 in
17:08 47.0 °F 31.2 °F 29.66 in WSW 2.5 mph 4.6 mph 54 % 0.00 in
17:13 46.8 °F 31.0 °F 29.67 in West 3.4 mph 7.0 mph 54 % 0.00 in
17:18 46.7 °F 30.9 °F 29.67 in WSW 5.9 mph 10.4 mph 54 % 0.00 in
17:23 46.5 °F 30.7 °F 29.68 in WSW 5.9 mph 9.2 mph 54 % 0.00 in
17:28 46.4 °F 30.6 °F 29.68 in WSW 0.5 mph 2.3 mph 54 % 0.00 in
17:33 46.3 °F 30.5 °F 29.68 in West 3.0 mph 5.8 mph 54 % 0.00 in
17:38 46.2 °F 30.9 °F 29.68 in West 2.7 mph 7.0 mph 55 % 0.00 in
17:43 46.1 °F 30.8 °F 29.68 in West 4.4 mph 6.0 mph 55 % 0.00 in
17:48 46.1 °F 30.8 °F 29.68 in WSW 5.2 mph 11.5 mph 55 % 0.00 in
17:53 46.0 °F 30.7 °F 29.68 in WSW 5.0 mph 10.4 mph 55 % 0.00 in
17:58 45.9 °F 30.6 °F 29.68 in West 6.4 mph 10.4 mph 55 % 0.00 in
18:03 45.8 °F 31.0 °F 29.69 in WSW 6.2 mph 11.5 mph 56 % 0.00 in
18:08 45.6 °F 30.8 °F 29.69 in WSW 6.7 mph 11.5 mph 56 % 0.00 in
18:13 45.6 °F 30.8 °F 29.69 in West 2.7 mph 7.0 mph 56 % 0.00 in
18:18 45.5 °F 30.7 °F 29.69 in WSW 3.9 mph 8.1 mph 56 % 0.00 in
18:23 45.4 °F 30.6 °F 29.70 in West 6.7 mph 10.4 mph 56 % 0.00 in
18:28 45.3 °F 31.0 °F 29.70 in West 6.1 mph 12.7 mph 57 % 0.00 in
18:33 45.3 °F 31.0 °F 29.71 in WSW 4.4 mph 8.1 mph 57 % 0.00 in
18:38 45.2 °F 30.9 °F 29.71 in WSW 4.5 mph 11.5 mph 57 % 0.00 in
18:43 45.1 °F 30.8 °F 29.71 in West 4.3 mph 6.0 mph 57 % 0.00 in
18:48 45.0 °F 30.7 °F 29.71 in SSW 5.0 mph 7.0 mph 57 % 0.00 in
18:53 45.0 °F 30.7 °F 29.72 in WNW 4.6 mph 6.9 mph 57 % 0.00 in
18:59 44.9 °F 31.0 °F 29.73 in West 4.4 mph 9.2 mph 58 % 0.00 in
19:04 44.9 °F 31.0 °F 29.72 in West 3.2 mph 8.1 mph 58 % 0.00 in
19:09 44.9 °F 31.0 °F 29.72 in West 6.3 mph 8.0 mph 58 % 0.00 in
19:14 44.9 °F 31.0 °F 29.73 in WSW 3.7 mph 6.0 mph 58 % 0.00 in
19:19 44.9 °F 31.0 °F 29.73 in West 3.3 mph 9.2 mph 58 % 0.00 in
19:24 44.8 °F 30.9 °F 29.73 in WSW 6.4 mph 9.2 mph 58 % 0.00 in
19:29 44.9 °F 31.0 °F 29.73 in WSW 5.7 mph 11.5 mph 58 % 0.00 in
19:34 44.9 °F 31.0 °F 29.73 in SW 6.8 mph 11.5 mph 58 % 0.00 in
19:39 44.9 °F 31.0 °F 29.73 in West 8.7 mph 11.5 mph 58 % 0.00 in
19:44 44.9 °F 31.0 °F 29.74 in SW 4.1 mph 7.0 mph 58 % 0.00 in
19:49 44.8 °F 30.9 °F 29.74 in West 1.8 mph 6.9 mph 58 % 0.00 in
19:54 44.7 °F 31.2 °F 29.75 in SW 2.4 mph 6.9 mph 59 % 0.00 in
19:59 44.6 °F 31.1 °F 29.75 in WSW 4.0 mph 6.9 mph 59 % 0.00 in
20:04 44.5 °F 31.1 °F 29.75 in WSW 3.0 mph 6.9 mph 59 % 0.00 in
20:09 44.4 °F 31.0 °F 29.75 in WSW 4.5 mph 9.2 mph 59 % 0.00 in
20:14 44.3 °F 30.9 °F 29.75 in WSW 3.2 mph 6.9 mph 59 % 0.00 in
20:19 44.2 °F 31.2 °F 29.75 in WSW 3.8 mph 9.2 mph 60 % 0.00 in
20:21 44.2 °F 31.2 °F 29.75 in SW 3.3 mph 8.1 mph 60 % 0.00 in
20:26 44.1 °F 31.1 °F 29.75 in SW 4.9 mph 9.2 mph 60 % 0.00 in
20:31 44.0 °F 31.0 °F 29.75 in SW 5.6 mph 7.0 mph 60 % 0.00 in
20:36 44.0 °F 31.0 °F 29.75 in West 3.4 mph 10.4 mph 60 % 0.00 in
20:41 44.0 °F 31.0 °F 29.75 in WSW 5.8 mph 11.5 mph 60 % 0.00 in
20:46 44.0 °F 31.0 °F 29.76 in SW 4.7 mph 8.1 mph 60 % 0.00 in
20:51 44.0 °F 31.0 °F 29.76 in WSW 5.3 mph 7.0 mph 60 % 0.00 in
20:56 44.0 °F 31.0 °F 29.76 in SW 3.7 mph 11.5 mph 60 % 0.00 in
21:01 44.0 °F 31.0 °F 29.76 in WSW 6.5 mph 10.4 mph 60 % 0.00 in
21:06 44.0 °F 31.0 °F 29.76 in WSW 3.8 mph 6.9 mph 60 % 0.00 in
21:11 43.9 °F 30.9 °F 29.76 in SW 2.4 mph 4.6 mph 60 % 0.00 in
21:16 43.8 °F 31.2 °F 29.76 in SW 2.6 mph 5.8 mph 61 % 0.00 in
21:21 43.6 °F 31.0 °F 29.76 in SW 1.8 mph 3.5 mph 61 % 0.00 in
21:26 43.4 °F 30.8 °F 29.76 in SW 2.3 mph 5.8 mph 61 % 0.00 in
21:31 43.3 °F 30.7 °F 29.77 in SSW 1.9 mph 3.0 mph 61 % 0.00 in
21:36 43.0 °F 30.9 °F 29.77 in SSW 2.3 mph 4.0 mph 62 % 0.00 in
21:41 42.8 °F 30.7 °F 29.77 in SSW 2.2 mph 3.5 mph 62 % 0.00 in
21:46 42.6 °F 30.5 °F 29.77 in SW 1.7 mph 3.5 mph 62 % 0.00 in
21:51 42.3 °F 30.6 °F 29.77 in SW 2.4 mph 4.0 mph 63 % 0.00 in
21:56 42.1 °F 30.4 °F 29.78 in SW 1.4 mph 3.5 mph 63 % 0.00 in
22:01 41.9 °F 30.2 °F 29.77 in SW 2.7 mph 3.5 mph 63 % 0.00 in
22:06 41.7 °F 30.4 °F 29.77 in SSW 1.8 mph 3.5 mph 64 % 0.00 in
22:11 41.5 °F 30.2 °F 29.77 in SSW 2.0 mph 4.0 mph 64 % 0.00 in
22:16 41.4 °F 30.1 °F 29.77 in SSW 2.0 mph 3.5 mph 64 % 0.00 in
22:22 41.3 °F 30.0 °F 29.77 in SSW 1.5 mph 3.5 mph 64 % 0.00 in
22:27 41.2 °F 30.3 °F 29.77 in SW 1.8 mph 3.5 mph 65 % 0.00 in
22:32 41.0 °F 30.1 °F 29.77 in SSW 2.5 mph 3.5 mph 65 % 0.00 in
22:37 40.9 °F 30.0 °F 29.78 in SW 1.4 mph 3.5 mph 65 % 0.00 in
22:42 40.8 °F 29.9 °F 29.78 in SW 2.4 mph 3.5 mph 65 % 0.00 in
22:47 40.7 °F 29.8 °F 29.78 in SW 1.8 mph 3.5 mph 65 % 0.00 in
22:52 40.6 °F 30.1 °F 29.78 in SSW 2.8 mph 4.0 mph 66 % 0.00 in
22:57 40.4 °F 29.9 °F 29.79 in SSW 2.9 mph 3.5 mph 66 % 0.00 in
23:02 40.3 °F 29.8 °F 29.78 in SSW 1.1 mph 3.5 mph 66 % 0.00 in
23:07 40.2 °F 30.1 °F 29.78 in SW 1.3 mph 2.3 mph 67 % 0.00 in
23:12 40.2 °F 30.1 °F 29.78 in SW 0.3 mph 2.3 mph 67 % 0.00 in
23:17 40.1 °F 30.0 °F 29.78 in SW 0.2 mph 1.2 mph 67 % 0.00 in
23:22 40.0 °F 29.9 °F 29.78 in SW 2.7 mph 4.6 mph 67 % 0.00 in
23:27 40.0 °F 30.3 °F 29.78 in SW 1.7 mph 3.5 mph 68 % 0.00 in
23:32 39.9 °F 30.2 °F 29.78 in SW 1.4 mph 2.3 mph 68 % 0.00 in
23:37 39.9 °F 30.2 °F 29.78 in SSW 1.5 mph 2.3 mph 68 % 0.00 in
23:42 39.8 °F 30.1 °F 29.79 in SSW 2.0 mph 3.5 mph 68 % 0.00 in
23:47 39.8 °F 30.1 °F 29.79 in WSW 1.8 mph 3.0 mph 68 % 0.00 in
23:52 39.7 °F 30.0 °F 29.79 in SW 2.2 mph 3.5 mph 68 % 0.00 in
23:57 39.7 °F 30.0 °F 29.79 in SW 1.2 mph 3.5 mph 68 % 0.00 in
Crab Meadow Weather
Compliments of Weather Underground - 3 mb

Script developed by  Jim McMurry - jmcmurry@mwt.net Adapted for the template by  Wim van der Kuil - Leuven-Template.eu

Recycling: Recycling one aluminum can saves enough energy to run a TV for three hours -- or the equivalent of a half a gallon of gasoline.